Falfurrias, TX

5:44 PM CST on November 18, 2019 (GMT -0600)
Falfurrias

Weather History for KBKS - September, 2019

Change the Weather History Date:

Saturday, September 14, 2019

  Actual Average (WUND) Record (WUND)
Temperature  
Mean Temperature 84 °F -  
Max Temperature 93 °F - - (-1)
Min Temperature 76 °F - - (-1)
Cooling Degree Days 20    
Growing Degree Days 34 (Base 50)    
Moisture  
Dew Point 72 °F    
Average Humidity 72    
Maximum Humidity 90    
Minimum Humidity 42    
Precipitation  
Precipitation 0.04 in - - ()
Sea Level Pressure  
Sea Level Pressure 30.04 in    
Wind  
Wind Speed 4 mph ()    
Max Wind Speed 18 mph    
Max Gust Speed 26 mph    
Visibility 9.3 miles    
Events      
Averages and records for this station are not official NWS values.
T = Trace of Precipitation, MM = Missing Value Source: Averaged Metar Reports

Daily Weather History Graph

Daily Weather History Graph

Search for Another Location

Airport or City:

Astronomy

Sep. 14, 2019 Rise Set
Actual Time 7:17 AM CDT 7:38 PM CDT
Civil Twilight 6:54 AM CDT 8:01 PM CDT
Nautical Twilight 6:26 AM CDT 8:28 PM CDT
Astronomical Twilight 5:59 AM CDT 8:56 PM CDT
Moon 8:19 PM CDT (9/14) 7:35 AM CDT (9/14)
Length of Visible Light 13h 07m
Length of Day
12h 20m
Full, 100% of the Moon is Illuminated
Sep 14
Full
Sep 21
Last Quarter
Sep 28
New
Oct 5
First Quarter
Oct 13
Full

Hourly Weather History & Observations

Time (CDT) Temp. Heat Index Dew Point Humidity Pressure Visibility Wind Dir Wind Speed Gust Speed Precip Events Conditions
12:15 AM 77.2 °F - 73.4 °F 88% 30.06 in 10.0 mi West 3.5 mph - N/A   Clear
12:35 AM 76.6 °F - 73.0 °F 89% 30.06 in 10.0 mi Calm Calm - N/A   Clear
12:55 AM 77.0 °F - 73.2 °F 88% 30.06 in 10.0 mi Calm Calm - N/A   Scattered Clouds
1:15 AM 77.0 °F - 73.0 °F 88% 30.06 in 10.0 mi Calm Calm - N/A   Scattered Clouds
1:35 AM 77.2 °F - 73.4 °F 88% 30.06 in 10.0 mi Calm Calm - N/A   Scattered Clouds
1:55 AM 77.2 °F - 73.6 °F 89% 30.06 in 10.0 mi Calm Calm - N/A   Mostly Cloudy
2:15 AM 77.4 °F - 73.8 °F 89% 30.06 in 10.0 mi Calm Calm - N/A   Overcast
2:35 AM 77.4 °F - 73.6 °F 88% 30.06 in 10.0 mi NW 3.5 mph - N/A   Scattered Clouds
2:55 AM 77.0 °F - 73.4 °F 89% 30.05 in 10.0 mi Calm Calm - N/A   Scattered Clouds
3:15 AM 77.0 °F - 73.4 °F 89% 30.05 in 10.0 mi Calm Calm - N/A   Clear
3:35 AM 76.6 °F - 73.4 °F 90% 30.03 in 7.0 mi NNW 4.6 mph - N/A   Clear
3:55 AM 76.6 °F - 73.0 °F 89% 30.03 in 7.0 mi NNW 3.5 mph - N/A   Clear
4:15 AM 76.5 °F - 72.9 °F 89% 30.03 in 7.0 mi NNW 4.6 mph - N/A   Clear
4:35 AM 76.3 °F - 72.9 °F 89% 30.03 in 7.0 mi NNW 3.5 mph - N/A   Clear
4:55 AM 76.1 °F - 72.9 °F 90% 30.04 in 7.0 mi Calm Calm - N/A   Clear
5:15 AM 76.3 °F - 72.9 °F 89% 30.04 in 7.0 mi NNW 4.6 mph - N/A   Clear
5:55 AM 77.0 °F - 72.9 °F 87% 30.04 in 10.0 mi NNW 4.6 mph - N/A   Scattered Clouds
6:15 AM 77.7 °F - 73.6 °F 87% 30.05 in 10.0 mi North 3.5 mph - N/A   Mostly Cloudy
6:35 AM 77.7 °F - 73.8 °F 88% 30.05 in 10.0 mi North 6.9 mph - N/A   Mostly Cloudy
6:55 AM 77.5 °F - 73.6 °F 88% 30.06 in 10.0 mi North 3.5 mph - N/A   Scattered Clouds
7:15 AM 77.0 °F - 73.4 °F 89% 30.06 in 10.0 mi North 5.8 mph - N/A   Clear
7:35 AM 76.3 °F - 72.9 °F 89% 30.06 in 7.0 mi North 5.8 mph - N/A   Clear
7:55 AM 76.3 °F - 73.0 °F 90% 30.07 in 5.0 mi NNW 3.5 mph - N/A   Clear
8:15 AM 77.0 °F - 73.6 °F 89% 30.07 in 5.0 mi North 5.8 mph - N/A   Clear
8:35 AM 77.9 °F - 74.3 °F 89% 30.07 in 5.0 mi North 4.6 mph - N/A   Scattered Clouds
8:55 AM 78.8 °F - 74.3 °F 86% 30.07 in 7.0 mi North 8.1 mph - N/A   Scattered Clouds
9:15 AM 80.4 °F 85.6 °F 74.8 °F 83% 30.08 in 10.0 mi North 5.8 mph - N/A   Clear
9:35 AM 81.0 °F 86.5 °F 74.5 °F 81% 30.08 in 10.0 mi North 4.6 mph - N/A   Scattered Clouds
9:55 AM 82.6 °F 89.4 °F 74.7 °F 77% 30.09 in 10.0 mi NNE 3.5 mph - N/A   Scattered Clouds
10:15 AM 84.6 °F 92.1 °F 74.3 °F 71% 30.09 in 10.0 mi North 8.1 mph - N/A   Scattered Clouds
10:35 AM 85.5 °F 93.8 °F 74.7 °F 70% 30.09 in 10.0 mi NNE 8.1 mph - N/A   Clear
10:55 AM 86.2 °F 95.1 °F 75.0 °F 69% 30.09 in 10.0 mi NNE 4.6 mph - N/A   Scattered Clouds
11:15 AM 88.9 °F 97.6 °F 73.8 °F 61% 30.09 in 10.0 mi NNE 6.9 mph - N/A   Mostly Cloudy
11:35 AM 89.6 °F 97.2 °F 72.7 °F 57% 30.08 in 10.0 mi NE 9.2 mph - N/A   Mostly Cloudy
11:55 AM 89.8 °F 98.1 °F 73.0 °F 58% 30.08 in 10.0 mi NE 8.1 mph - N/A   Scattered Clouds
12:15 PM 89.8 °F 97.0 °F 72.0 °F 56% 30.07 in 10.0 mi NNE 5.8 mph - N/A   Scattered Clouds
12:35 PM 91.4 °F 97.8 °F 70.7 °F 51% 30.06 in 10.0 mi NNE 4.6 mph - N/A   Clear
12:55 PM 91.9 °F 97.4 °F 70.0 °F 48% 30.05 in 10.0 mi ENE 5.8 mph - N/A   Scattered Clouds
1:15 PM 92.3 °F 98.6 °F 70.5 °F 49% 30.04 in 10.0 mi ENE 6.9 mph - N/A   Scattered Clouds
1:35 PM 91.2 °F 97.0 °F 70.2 °F 50% 30.03 in 10.0 mi NE 17.3 mph 20.7 mph N/A   Mostly Cloudy
1:55 PM 82.4 °F 89.2 °F 74.8 °F 78% 30.04 in 5.0 mi NE 4.6 mph - 0.02 in   Overcast
2:15 PM 86.0 °F 93.8 °F 73.8 °F 67% 30.03 in 10.0 mi NNE 6.9 mph - N/A   Overcast
2:35 PM 86.9 °F 96.4 °F 75.4 °F 68% 30.02 in 10.0 mi Calm Calm - N/A   Scattered Clouds
2:55 PM 92.1 °F 97.7 °F 69.6 °F 48% 30.01 in 10.0 mi ENE 6.9 mph - N/A   Scattered Clouds
3:15 PM 93.0 °F 99.0 °F 70.2 °F 47% 30.00 in 10.0 mi East 3.5 mph - N/A   Scattered Clouds
3:35 PM 93.6 °F 99.5 °F 69.6 °F 46% 29.99 in 10.0 mi ESE 8.1 mph - N/A   Clear
3:55 PM 88.3 °F 95.0 °F 71.8 °F 58% 30.00 in 5.0 mi ESE 18.4 mph 26.5 mph 0.02 in   Scattered Clouds
4:15 PM 84.6 °F 91.0 °F 72.9 °F 68% 29.99 in 10.0 mi East 4.6 mph - N/A   Mostly Cloudy
4:35 PM 87.8 °F 96.1 °F 73.8 °F 63% 29.98 in 10.0 mi East 10.4 mph - N/A   Clear
4:55 PM 91.6 °F 95.7 °F 68.4 °F 46% 29.98 in 10.0 mi East 12.7 mph 17.3 mph N/A   Clear
5:15 PM 91.9 °F 94.5 °F 65.7 °F 42% 29.98 in 10.0 mi East 11.5 mph 16.1 mph N/A   Clear
5:35 PM 91.9 °F 95.4 °F 67.3 °F 44% 29.98 in 10.0 mi East 8.1 mph 11.5 mph N/A   Clear
5:55 PM 91.4 °F 94.9 °F 67.1 °F 45% 29.98 in 10.0 mi ENE 11.5 mph - N/A   Clear
6:15 PM 90.7 °F 93.6 °F 66.9 °F 45% 29.98 in 10.0 mi East 9.2 mph - N/A   Clear
6:35 PM 89.8 °F 92.9 °F 66.9 °F 47% 29.98 in 10.0 mi East 9.2 mph - N/A   Clear
6:55 PM 88.9 °F 93.0 °F 68.4 °F 51% 29.98 in 10.0 mi ENE 6.9 mph - N/A   Clear
7:15 PM 87.4 °F 92.3 °F 70.0 °F 56% 29.98 in 10.0 mi ENE 5.8 mph - N/A   Clear
7:35 PM 85.8 °F 91.5 °F 71.6 °F 62% 29.99 in 10.0 mi East 3.5 mph - N/A   Clear
7:55 PM 84.6 °F 88.8 °F 70.0 °F 61% 29.99 in 10.0 mi ESE 4.6 mph - N/A   Clear
8:15 PM 83.3 °F 87.4 °F 70.0 °F 64% 30.00 in 10.0 mi ESE 3.5 mph - N/A   Clear
8:35 PM 82.4 °F 86.7 °F 70.9 °F 68% 30.01 in 10.0 mi Calm Calm - N/A   Clear
8:55 PM 82.0 °F 86.1 °F 70.5 °F 68% 30.01 in 10.0 mi SE 3.5 mph - N/A   Clear
9:15 PM 81.7 °F 85.8 °F 70.9 °F 70% 30.01 in 10.0 mi Calm Calm - N/A   Clear
9:35 PM 80.8 °F 84.4 °F 70.7 °F 71% 30.01 in 10.0 mi ESE 3.5 mph - N/A   Clear
9:55 PM 80.4 °F 84.1 °F 70.9 °F 73% 30.02 in 10.0 mi Calm Calm - N/A   Clear
10:15 PM 80.6 °F 84.2 °F 70.9 °F 72% 30.02 in 10.0 mi Calm Calm - N/A   Clear
10:35 PM 79.2 °F - 71.6 °F 78% 30.03 in 10.0 mi Calm Calm - N/A   Clear
10:55 PM 79.7 °F - 72.1 °F 78% 30.03 in 10.0 mi Calm Calm - N/A   Clear
11:15 PM 79.0 °F - 72.1 °F 79% 30.03 in 10.0 mi Calm Calm - N/A   Clear
11:35 PM 78.1 °F - 72.1 °F 82% 30.03 in 10.0 mi Calm Calm - N/A   Clear
11:55 PM 77.4 °F - 72.5 °F 85% 30.03 in 10.0 mi Calm Calm - N/A   Clear